Date String (YYYY-MM-DD hh:mm:ss) UTC,Instrument flags,Ambient pressure (hPa),Sample flow (lpm),Bypass flow (lpm),Sample temperature (°C),Ambient temperature (°C),ASC tube jacket temperature (°C),LED temperature (°C),Box temperature (°C),Sample RH (%),Span deviation,Mass concentration (μg/m³),Mass concentration (μg/m³),Mass concentration (μg/m³)
DateTimeUTC,F1_M11,P_M11,Q1_M11,Q2_M11,T1_M11,T2_M11,T3_M11,T4_M11,T5_M11,U1_M11,ZSPAN_M11,X0_M11,X2_M11,X1_M11
2022-03-25 10:00:00,,0830.2,5.00,0.00,26.8,25.7,00.0,35.8,28.6,14.9,0000.0,0009.43,0003.21,0001.51
2022-03-25 10:01:00,,0830.3,5.01,0.00,26.8,25.7,00.0,35.8,28.6,14.9,0000.0,0009.32,0003.23,0001.53
2022-03-25 10:02:00,,0830.3,5.01,0.00,26.8,25.7,00.0,35.8,28.6,14.9,0000.0,0009.82,0003.23,0001.53
2022-03-25 10:03:00,,0830.3,5.02,0.00,26.8,25.7,00.0,35.8,28.6,14.9,0000.0,0009.17,0003.24,0001.54
2022-03-25 10:04:00,,0830.4,5.00,0.00,26.8,25.6,00.0,35.8,28.6,14.9,0000.0,0008.50,0003.24,0001.53
2022-03-25 10:05:00,,0830.4,5.00,0.00,26.8,25.7,00.0,35.8,28.5,15.0,0000.0,0008.97,0003.24,0001.53
2022-03-25 10:06:00,,0830.4,4.99,0.00,26.7,25.7,00.0,35.8,28.5,15.0,0000.0,0009.08,0003.28,0001.55
2022-03-25 10:07:00,,0830.4,5.00,0.00,26.7,25.7,00.0,35.8,28.5,15.0,0000.0,0009.12,0003.31,0001.57
2022-03-25 10:08:00,,0830.4,4.99,0.00,26.7,25.7,00.0,35.7,28.5,15.0,0000.0,0009.20,0003.32,0001.56
2022-03-25 10:09:00,,0830.4,5.00,0.00,26.7,25.7,00.0,35.7,28.5,15.0,0000.0,0009.23,0003.31,0001.57
2022-03-25 10:10:00,,0830.4,5.01,0.00,26.7,25.6,00.0,35.7,28.5,15.0,0000.0,0009.23,0003.31,0001.59
2022-03-25 10:11:00,,0830.4,5.00,0.00,26.7,25.6,00.0,35.7,28.5,14.9,0000.0,0009.41,0003.33,0001.60
2022-03-25 10:12:00,,0830.5,5.02,0.00,26.7,25.6,00.0,35.7,28.5,14.8,0000.0,0009.67,0003.29,0001.57
2022-03-25 10:13:00,,0830.5,5.01,0.00,26.7,25.6,00.0,35.7,28.4,14.6,0000.0,0009.07,0003.31,0001.56
2022-03-25 10:14:00,,0830.4,5.00,0.00,26.7,25.5,00.0,35.7,28.4,14.4,0000.0,0008.89,0003.28,0001.55
2022-03-25 10:15:00,,0830.4,5.00,0.00,26.6,25.5,00.0,35.7,28.4,14.2,0000.0,0009.74,0003.26,0001.54
2022-03-25 10:16:00,,0830.5,5.00,0.00,26.6,25.5,00.0,35.7,28.4,14.2,0000.0,0009.46,0003.24,0001.52
2022-03-25 10:17:00,,0830.5,5.00,0.00,26.6,25.5,00.0,35.7,28.4,14.2,0000.0,0009.23,0003.21,0001.50
2022-03-25 10:18:00,,0830.5,5.00,0.00,26.6,25.5,00.0,35.7,28.4,14.1,0000.0,0009.15,0003.15,0001.46
2022-03-25 10:19:00,,0830.5,5.01,0.00,26.6,25.5,00.0,35.6,28.4,14.1,0000.0,0009.22,0003.18,0001.44
2022-03-25 10:20:00,,0830.6,5.00,0.00,26.6,25.5,00.0,35.6,28.4,14.0,0000.0,0009.23,0003.17,0001.42
2022-03-25 10:21:00,,0830.6,5.00,0.00,26.6,25.5,00.0,35.6,28.4,14.0,0000.0,0009.28,0003.16,0001.40
2022-03-25 10:22:00,,0830.5,4.99,0.00,26.6,25.5,00.0,35.6,28.4,14.2,0000.0,0009.24,0003.18,0001.39
2022-03-25 10:23:00,,0830.6,4.99,0.00,26.6,25.5,00.0,35.6,28.4,14.2,0000.0,0009.06,0003.20,0001.38
2022-03-25 10:24:00,,0830.6,5.02,0.00,26.6,25.4,00.0,35.6,28.4,14.3,0000.0,0008.86,0003.14,0001.39
2022-03-25 10:25:00,,0830.6,5.00,0.00,26.6,25.5,00.0,35.6,28.4,14.2,0000.0,0009.00,0003.14,0001.39
2022-03-25 10:26:00,,0830.6,4.99,0.00,26.6,25.5,00.0,35.6,28.3,14.2,0000.0,0008.31,0003.11,0001.38
2022-03-25 10:27:00,,0830.6,4.99,0.00,26.6,25.5,00.0,35.6,28.3,14.2,0000.0,0008.31,0003.13,0001.38
2022-03-25 10:28:00,,0830.7,4.99,0.00,26.5,25.4,00.0,35.6,28.3,14.3,0000.0,0008.41,0003.14,0001.38
2022-03-25 10:29:00,,0830.7,5.01,0.00,26.5,25.5,00.0,35.6,28.3,14.3,0000.0,0008.34,0003.14,0001.38
2022-03-25 10:30:00,,0830.8,5.00,0.00,26.5,25.5,00.0,35.5,28.3,14.2,0000.0,0008.19,0003.10,0001.38
2022-03-25 10:31:00,,0830.7,5.00,0.00,26.5,25.5,00.0,35.5,28.3,14.2,0000.0,0008.37,0003.07,0001.38
2022-03-25 10:32:00,,0830.7,5.01,0.00,26.5,25.5,00.0,35.5,28.3,14.2,0000.0,0008.59,0003.06,0001.38
2022-03-25 10:33:00,,0830.7,5.00,0.00,26.5,25.5,00.0,35.5,28.3,14.2,0000.0,0008.99,0002.98,0001.37
2022-03-25 10:34:00,,0830.7,5.00,0.00,26.5,25.5,00.0,35.5,28.3,14.2,0000.0,0008.80,0002.98,0001.36
2022-03-25 10:35:00,,0830.7,5.00,0.00,26.5,25.4,00.0,35.5,28.3,14.2,0000.0,0009.06,0003.07,0001.34
2022-03-25 10:36:00,,0830.7,5.00,0.00,26.5,25.4,00.0,35.5,28.3,14.2,0000.0,0008.94,0003.04,0001.34
2022-03-25 10:37:00,,0830.7,5.00,0.00,26.5,25.5,00.0,35.5,28.3,14.1,0000.0,0009.26,0003.12,0001.36
2022-03-25 10:38:00,,0830.7,4.99,0.00,26.5,25.5,00.0,35.5,28.3,14.2,0000.0,0009.03,0003.13,0001.37
2022-03-25 10:39:00,,0830.7,5.01,0.00,26.5,25.4,00.0,35.5,28.3,14.2,0000.0,0008.86,0003.02,0001.37
2022-03-25 10:40:00,,0830.7,5.00,0.00,26.5,25.5,00.0,35.5,28.3,14.1,0000.0,0008.90,0002.99,0001.36
2022-03-25 10:41:00,,0830.8,5.00,0.00,26.5,25.5,00.0,35.5,28.3,14.1,0000.0,0008.76,0002.91,0001.37
2022-03-25 10:42:00,,0830.8,4.99,0.00,26.5,25.5,00.0,35.5,28.3,14.2,0000.0,0008.48,0002.90,0001.37
2022-03-25 10:43:00,,0830.9,5.00,0.00,26.5,25.5,00.0,35.5,28.3,14.1,0000.0,0008.42,0002.88,0001.37
2022-03-25 10:44:00,,0830.9,5.00,0.00,26.5,25.5,00.0,35.5,28.3,14.0,0000.0,0008.06,0002.88,0001.36
2022-03-25 10:45:00,,0830.9,5.00,0.00,26.5,25.5,00.0,35.5,28.3,14.0,0000.0,0008.08,0002.84,0001.35
2022-03-25 10:46:00,,0830.9,5.00,0.00,26.5,25.5,00.0,35.5,28.3,14.1,0000.0,0007.87,0002.77,0001.36
2022-03-25 10:47:00,,0830.9,5.00,0.00,26.5,25.5,00.0,35.5,28.3,14.1,0000.0,0007.88,0002.80,0001.35
2022-03-25 10:48:00,,0831.0,5.00,0.00,26.5,25.5,00.0,35.5,28.3,14.0,0000.0,0007.46,0002.71,0001.32
2022-03-25 10:49:00,,0830.9,5.00,0.00,26.5,25.5,00.0,35.5,28.3,13.8,0000.0,0007.25,0002.66,0001.30
2022-03-25 10:50:00,,0831.0,5.01,0.00,26.5,25.4,00.0,35.5,28.3,13.8,0000.0,0007.18,0002.70,0001.28
2022-03-25 10:51:00,,0831.0,5.00,0.00,26.5,25.5,00.0,35.4,28.3,13.7,0000.0,0007.13,0002.70,0001.27
2022-03-25 10:52:00,,0831.0,5.00,0.00,26.5,25.5,00.0,35.4,28.3,13.6,0000.0,0007.71,0002.76,0001.27
2022-03-25 10:53:00,,0831.0,5.00,0.00,26.5,25.4,00.0,35.4,28.3,13.6,0000.0,0007.83,0002.75,0001.26
2022-03-25 10:54:00,,0831.0,5.00,0.00,26.5,25.4,00.0,35.4,28.3,13.6,0000.0,0007.60,0002.70,0001.26
2022-03-25 10:55:00,,0831.0,4.99,0.00,26.5,25.4,00.0,35.4,28.3,13.6,0000.0,0007.26,0002.66,0001.26
2022-03-25 10:56:00,,0831.0,5.00,0.00,26.5,25.4,00.0,35.4,28.3,13.6,0000.0,0008.24,0002.70,0001.26
2022-03-25 10:57:00,,0831.0,5.01,0.00,26.4,25.4,00.0,35.4,28.3,13.7,0000.0,0008.57,0002.74,0001.26
2022-03-25 10:58:00,,0831.0,5.01,0.00,26.4,25.4,00.0,35.4,28.3,13.8,0000.0,0009.15,0002.77,0001.26
2022-03-25 10:59:00,,0831.0,4.99,0.00,26.4,25.4,00.0,35.4,28.2,13.8,0000.0,0009.65,0002.89,0001.28
